﻿測定場所 (Monitoring sites),日付 (Measurement date),時間 (Measurement time),線量率 最大値 (max) μGy/h,線量率 最小値 (min) μGy/h,線量率 平均値 (average) μGy/h,
江戸川 (Edogawa),2014-01-05,23:01～24:00,0.0849,0.0733,0.0790,
江戸川 (Edogawa),2014-01-05,22:01～23:00,0.0840,0.0744,0.0791,
江戸川 (Edogawa),2014-01-05,21:01～22:00,0.0858,0.0734,0.0788,
江戸川 (Edogawa),2014-01-05,20:01～21:00,0.0846,0.0729,0.0788,
江戸川 (Edogawa),2014-01-05,19:01～20:00,0.0840,0.0736,0.0796,
江戸川 (Edogawa),2014-01-05,18:01～19:00,0.0850,0.0736,0.0795,
江戸川 (Edogawa),2014-01-05,17:01～18:00,0.0852,0.0751,0.0794,
江戸川 (Edogawa),2014-01-05,16:01～17:00,0.0839,0.0742,0.0790,
江戸川 (Edogawa),2014-01-05,15:01～16:00,0.0832,0.0740,0.0795,
江戸川 (Edogawa),2014-01-05,14:01～15:00,0.0864,0.0734,0.0789,
江戸川 (Edogawa),2014-01-05,13:01～14:00,0.0844,0.0743,0.0793,
江戸川 (Edogawa),2014-01-05,12:01～13:00,0.0857,0.0734,0.0793,
江戸川 (Edogawa),2014-01-05,11:01～12:00,0.0852,0.0729,0.0791,
江戸川 (Edogawa),2014-01-05,10:01～11:00,0.0858,0.0739,0.0789,
江戸川 (Edogawa),2014-01-05,09:01～10:00,0.0849,0.0735,0.0783,
江戸川 (Edogawa),2014-01-05,08:01～09:00,0.0856,0.0732,0.0780,
江戸川 (Edogawa),2014-01-05,07:01～08:00,0.0848,0.0715,0.0785,
江戸川 (Edogawa),2014-01-05,06:01～07:00,0.0829,0.0722,0.0783,
江戸川 (Edogawa),2014-01-05,05:01～06:00,0.0852,0.0733,0.0787,
江戸川 (Edogawa),2014-01-05,04:01～05:00,0.0828,0.0725,0.0788,
江戸川 (Edogawa),2014-01-05,03:01～04:00,0.0833,0.0729,0.0783,
江戸川 (Edogawa),2014-01-05,02:01～03:00,0.0842,0.0739,0.0790,
江戸川 (Edogawa),2014-01-05,01:01～02:00,0.0860,0.0736,0.0788,
江戸川 (Edogawa),2014-01-05,00:01～01:00,0.0867,0.0736,0.0784,
江戸川 (Edogawa),2014-01-04,23:01～24:00,0.0837,0.0729,0.0788,
江戸川 (Edogawa),2014-01-04,22:01～23:00,0.0835,0.0741,0.0790,
江戸川 (Edogawa),2014-01-04,21:01～22:00,0.0839,0.0731,0.0788,
江戸川 (Edogawa),2014-01-04,20:01～21:00,0.0847,0.0755,0.0796,
江戸川 (Edogawa),2014-01-04,19:01～20:00,0.0848,0.0730,0.0795,
江戸川 (Edogawa),2014-01-04,18:01～19:00,0.0860,0.0737,0.0795,
江戸川 (Edogawa),2014-01-04,17:01～18:00,0.0853,0.0741,0.0802,
江戸川 (Edogawa),2014-01-04,16:01～17:00,0.0864,0.0746,0.0805,
江戸川 (Edogawa),2014-01-04,15:01～16:00,0.0860,0.0759,0.0809,
江戸川 (Edogawa),2014-01-04,14:01～15:00,0.0846,0.0737,0.0805,
江戸川 (Edogawa),2014-01-04,13:01～14:00,0.0877,0.0731,0.0806,
江戸川 (Edogawa),2014-01-04,12:01～13:00,0.0873,0.0735,0.0809,
江戸川 (Edogawa),2014-01-04,11:01～12:00,0.0858,0.0764,0.0814,
江戸川 (Edogawa),2014-01-04,10:01～11:00,0.0860,0.0748,0.0809,
江戸川 (Edogawa),2014-01-04,09:01～10:00,0.0876,0.0751,0.0810,
江戸川 (Edogawa),2014-01-04,08:01～09:00,0.0860,0.0739,0.0803,
江戸川 (Edogawa),2014-01-04,07:01～08:00,0.0842,0.0738,0.0795,
江戸川 (Edogawa),2014-01-04,06:01～07:00,0.0858,0.0745,0.0797,
江戸川 (Edogawa),2014-01-04,05:01～06:00,0.0854,0.0730,0.0790,
江戸川 (Edogawa),2014-01-04,04:01～05:00,0.0851,0.0747,0.0797,
江戸川 (Edogawa),2014-01-04,03:01～04:00,0.0847,0.0745,0.0793,
江戸川 (Edogawa),2014-01-04,02:01～03:00,0.0842,0.0745,0.0796,
江戸川 (Edogawa),2014-01-04,01:01～02:00,0.0832,0.0729,0.0792,
江戸川 (Edogawa),2014-01-04,00:01～01:00,0.0837,0.0743,0.0791,
江戸川 (Edogawa),2014-01-03,23:01～24:00,0.0864,0.0746,0.0797,
江戸川 (Edogawa),2014-01-03,22:01～23:00,0.0845,0.0741,0.0796,
江戸川 (Edogawa),2014-01-03,21:01～22:00,0.0854,0.0751,0.0796,
江戸川 (Edogawa),2014-01-03,20:01～21:00,0.0853,0.0726,0.0791,
江戸川 (Edogawa),2014-01-03,19:01～20:00,0.0866,0.0750,0.0797,
江戸川 (Edogawa),2014-01-03,18:01～19:00,0.0841,0.0744,0.0795,
江戸川 (Edogawa),2014-01-03,17:01～18:00,0.0838,0.0737,0.0793,
江戸川 (Edogawa),2014-01-03,16:01～17:00,0.0844,0.0748,0.0797,
江戸川 (Edogawa),2014-01-03,15:01～16:00,0.0862,0.0753,0.0812,
江戸川 (Edogawa),2014-01-03,14:01～15:00,0.0844,0.0750,0.0800,
江戸川 (Edogawa),2014-01-03,13:01～14:00,0.0848,0.0741,0.0807,
江戸川 (Edogawa),2014-01-03,12:01～13:00,0.0868,0.0745,0.0805,
江戸川 (Edogawa),2014-01-03,11:01～12:00,0.0853,0.0734,0.0795,
江戸川 (Edogawa),2014-01-03,10:01～11:00,0.0853,0.0738,0.0800,
江戸川 (Edogawa),2014-01-03,09:01～10:00,0.0861,0.0733,0.0795,
江戸川 (Edogawa),2014-01-03,08:01～09:00,0.0837,0.0737,0.0787,
江戸川 (Edogawa),2014-01-03,07:01～08:00,0.0843,0.0734,0.0778,
江戸川 (Edogawa),2014-01-03,06:01～07:00,0.0839,0.0739,0.0793,
江戸川 (Edogawa),2014-01-03,05:01～06:00,0.0846,0.0728,0.0788,
江戸川 (Edogawa),2014-01-03,04:01～05:00,0.0844,0.0733,0.0784,
江戸川 (Edogawa),2014-01-03,03:01～04:00,0.0853,0.0732,0.0787,
江戸川 (Edogawa),2014-01-03,02:01～03:00,0.0842,0.0729,0.0793,
江戸川 (Edogawa),2014-01-03,01:01～02:00,0.0851,0.0730,0.0789,
江戸川 (Edogawa),2014-01-03,00:01～01:00,0.0838,0.0743,0.0791,
江戸川 (Edogawa),2014-01-02,23:01～24:00,0.0852,0.0739,0.0789,
江戸川 (Edogawa),2014-01-02,22:01～23:00,0.0843,0.0736,0.0789,
江戸川 (Edogawa),2014-01-02,21:01～22:00,0.0855,0.0730,0.0785,
江戸川 (Edogawa),2014-01-02,20:01～21:00,0.0836,0.0726,0.0789,
江戸川 (Edogawa),2014-01-02,19:01～20:00,0.0865,0.0755,0.0792,
江戸川 (Edogawa),2014-01-02,18:01～19:00,0.0858,0.0731,0.0789,
江戸川 (Edogawa),2014-01-02,17:01～18:00,0.0847,0.0740,0.0792,
江戸川 (Edogawa),2014-01-02,16:01～17:00,0.0844,0.0741,0.0795,
江戸川 (Edogawa),2014-01-02,15:01～16:00,0.0849,0.0749,0.0804,
江戸川 (Edogawa),2014-01-02,14:01～15:00,0.0893,0.0746,0.0800,
江戸川 (Edogawa),2014-01-02,13:01～14:00,0.0858,0.0748,0.0803,
江戸川 (Edogawa),2014-01-02,12:01～13:00,0.0852,0.0750,0.0808,
江戸川 (Edogawa),2014-01-02,11:01～12:00,0.0863,0.0752,0.0811,
江戸川 (Edogawa),2014-01-02,10:01～11:00,0.0872,0.0749,0.0804,
江戸川 (Edogawa),2014-01-02,09:01～10:00,0.0849,0.0751,0.0797,
江戸川 (Edogawa),2014-01-02,08:01～09:00,0.0856,0.0732,0.0785,
江戸川 (Edogawa),2014-01-02,07:01～08:00,0.0862,0.0743,0.0793,
江戸川 (Edogawa),2014-01-02,06:01～07:00,0.0839,0.0733,0.0783,
江戸川 (Edogawa),2014-01-02,05:01～06:00,0.0827,0.0740,0.0783,
江戸川 (Edogawa),2014-01-02,04:01～05:00,0.0847,0.0739,0.0792,
江戸川 (Edogawa),2014-01-02,03:01～04:00,0.0852,0.0740,0.0794,
江戸川 (Edogawa),2014-01-02,02:01～03:00,0.0874,0.0724,0.0794,
江戸川 (Edogawa),2014-01-02,01:01～02:00,0.0859,0.0734,0.0792,
江戸川 (Edogawa),2014-01-02,00:01～01:00,0.0855,0.0731,0.0799,
江戸川 (Edogawa),2014-01-01,23:01～24:00,0.0844,0.0742,0.0799,
江戸川 (Edogawa),2014-01-01,22:01～23:00,0.0854,0.0745,0.0787,
江戸川 (Edogawa),2014-01-01,21:01～22:00,0.0841,0.0743,0.0791,
江戸川 (Edogawa),2014-01-01,20:01～21:00,0.0856,0.0740,0.0794,
江戸川 (Edogawa),2014-01-01,19:01～20:00,0.0853,0.0741,0.0800,
江戸川 (Edogawa),2014-01-01,18:01～19:00,0.0858,0.0730,0.0802,
江戸川 (Edogawa),2014-01-01,17:01～18:00,0.0866,0.0736,0.0800,
江戸川 (Edogawa),2014-01-01,16:01～17:00,0.0869,0.0745,0.0799,
江戸川 (Edogawa),2014-01-01,15:01～16:00,0.0846,0.0760,0.0804,
江戸川 (Edogawa),2014-01-01,14:01～15:00,0.0848,0.0761,0.0803,
江戸川 (Edogawa),2014-01-01,13:01～14:00,0.0856,0.0760,0.0801,
江戸川 (Edogawa),2014-01-01,12:01～13:00,0.0855,0.0751,0.0801,
江戸川 (Edogawa),2014-01-01,11:01～12:00,0.0863,0.0733,0.0796,
江戸川 (Edogawa),2014-01-01,10:01～11:00,0.0846,0.0735,0.0795,
江戸川 (Edogawa),2014-01-01,09:01～10:00,0.0858,0.0734,0.0791,
江戸川 (Edogawa),2014-01-01,08:01～09:00,0.0856,0.0728,0.0779,
江戸川 (Edogawa),2014-01-01,07:01～08:00,0.0845,0.0737,0.0781,
江戸川 (Edogawa),2014-01-01,06:01～07:00,0.0832,0.0734,0.0780,
江戸川 (Edogawa),2014-01-01,05:01～06:00,0.0835,0.0730,0.0784,
江戸川 (Edogawa),2014-01-01,04:01～05:00,0.0851,0.0737,0.0791,
江戸川 (Edogawa),2014-01-01,03:01～04:00,0.0863,0.0732,0.0789,
江戸川 (Edogawa),2014-01-01,02:01～03:00,0.0843,0.0730,0.0792,
江戸川 (Edogawa),2014-01-01,01:01～02:00,0.0848,0.0738,0.0799,
江戸川 (Edogawa),2014-01-01,00:01～01:00,0.0848,0.0733,0.0796,
江戸川 (Edogawa),2013-12-31,23:01～24:00,0.0851,0.0737,0.0792,
江戸川 (Edogawa),2013-12-31,22:01～23:00,0.0843,0.0738,0.0784,
江戸川 (Edogawa),2013-12-31,21:01～22:00,0.0843,0.0736,0.0790,
江戸川 (Edogawa),2013-12-31,20:01～21:00,0.0843,0.0733,0.0784,
江戸川 (Edogawa),2013-12-31,19:01～20:00,0.0825,0.0735,0.0782,
江戸川 (Edogawa),2013-12-31,18:01～19:00,0.0847,0.0732,0.0789,
江戸川 (Edogawa),2013-12-31,17:01～18:00,0.0850,0.0744,0.0789,
江戸川 (Edogawa),2013-12-31,16:01～17:00,0.0871,0.0742,0.0796,
江戸川 (Edogawa),2013-12-31,15:01～16:00,0.0850,0.0751,0.0800,
江戸川 (Edogawa),2013-12-31,14:01～15:00,0.0897,0.0752,0.0805,
江戸川 (Edogawa),2013-12-31,13:01～14:00,0.0873,0.0756,0.0808,
江戸川 (Edogawa),2013-12-31,12:01～13:00,0.0878,0.0749,0.0804,
江戸川 (Edogawa),2013-12-31,11:01～12:00,0.0858,0.0739,0.0809,
江戸川 (Edogawa),2013-12-31,10:01～11:00,0.0857,0.0752,0.0803,
江戸川 (Edogawa),2013-12-31,09:01～10:00,0.0845,0.0723,0.0790,
江戸川 (Edogawa),2013-12-31,08:01～09:00,0.0836,0.0730,0.0787,
江戸川 (Edogawa),2013-12-31,07:01～08:00,0.0832,0.0735,0.0787,
江戸川 (Edogawa),2013-12-31,06:01～07:00,0.0853,0.0724,0.0788,
江戸川 (Edogawa),2013-12-31,05:01～06:00,0.0834,0.0738,0.0791,
江戸川 (Edogawa),2013-12-31,04:01～05:00,0.0862,0.0728,0.0791,
江戸川 (Edogawa),2013-12-31,03:01～04:00,0.0879,0.0728,0.0792,
江戸川 (Edogawa),2013-12-31,02:01～03:00,0.0833,0.0727,0.0789,
江戸川 (Edogawa),2013-12-31,01:01～02:00,0.0843,0.0741,0.0788,
江戸川 (Edogawa),2013-12-31,00:01～01:00,0.0837,0.0733,0.0786,
江戸川 (Edogawa),2013-12-30,23:01～24:00,0.0839,0.0733,0.0786,
江戸川 (Edogawa),2013-12-30,22:01～23:00,0.0838,0.0737,0.0785,
江戸川 (Edogawa),2013-12-30,21:01～22:00,0.0847,0.0734,0.0781,
江戸川 (Edogawa),2013-12-30,20:01～21:00,0.0847,0.0732,0.0786,
江戸川 (Edogawa),2013-12-30,19:01～20:00,0.0861,0.0730,0.0781,
江戸川 (Edogawa),2013-12-30,18:01～19:00,0.0848,0.0733,0.0787,
江戸川 (Edogawa),2013-12-30,17:01～18:00,0.0850,0.0734,0.0788,
江戸川 (Edogawa),2013-12-30,16:01～17:00,0.0865,0.0740,0.0790,
江戸川 (Edogawa),2013-12-30,15:01～16:00,0.0839,0.0729,0.0794,
江戸川 (Edogawa),2013-12-30,14:01～15:00,0.0885,0.0756,0.0803,
江戸川 (Edogawa),2013-12-30,13:01～14:00,0.0848,0.0734,0.0792,
江戸川 (Edogawa),2013-12-30,12:01～13:00,0.0869,0.0746,0.0807,
江戸川 (Edogawa),2013-12-30,11:01～12:00,0.0882,0.0742,0.0798,
江戸川 (Edogawa),2013-12-30,10:01～11:00,0.0865,0.0737,0.0789,
江戸川 (Edogawa),2013-12-30,09:01～10:00,0.0849,0.0728,0.0790,
江戸川 (Edogawa),2013-12-30,08:01～09:00,0.0852,0.0742,0.0790,
江戸川 (Edogawa),2013-12-30,07:01～08:00,0.0829,0.0737,0.0783,
江戸川 (Edogawa),2013-12-30,06:01～07:00,0.0836,0.0735,0.0788,
江戸川 (Edogawa),2013-12-30,05:01～06:00,0.0868,0.0736,0.0789,
江戸川 (Edogawa),2013-12-30,04:01～05:00,0.0832,0.0736,0.0787,
江戸川 (Edogawa),2013-12-30,03:01～04:00,0.0856,0.0735,0.0784,
江戸川 (Edogawa),2013-12-30,02:01～03:00,0.0830,0.0731,0.0782,
江戸川 (Edogawa),2013-12-30,01:01～02:00,0.0851,0.0735,0.0787,
江戸川 (Edogawa),2013-12-30,00:01～01:00,0.0855,0.0732,0.0790,
